Regional Weather Roundup
Issued by NWS

Home | Current Version | Previous Version | Graphics & Text | Print | Product List | Glossary On
Versions: 1 2 3 4 5 6 7 8 9 10 11 12 13 14 15 16 17 18 19 20 21 22 23 24 25 26 27 28 29 30 31 32 33 34 35 36 37 38 39 40 41 42 43 44 45 46 47 48 49 50
000
ASUS43 KDMX 182301
RWRIA

WEATHER ROUNDUP FOR IOWA
NATIONAL WEATHER SERVICE DES MOINES IA
500 PM CST SUN FEB 18 2018

NOTE: "FAIR" INDICATES FEW OR NO CLOUDS BELOW 12,000 FEET WITH NO
SIGNIFICANT WEATHER AND/OR OBSTRUCTIONS TO VISIBILITY.

* - THESE STATIONS ARE NOT NWS STATIONS...THUS NOT UNDER NWS
QUALITY CONTROL.  THEY ALSO DO NOT REPORT WEATHER SUCH
AS PRECIPITATION OR FOG.

IAZ001>003-012>014-020>022-031>034-043>046-190000-
   NORTHWEST IOWA

CITY           SKY/WX    TMP DP  RH WIND       PRES   REMARKS
CARROLL *      CLOUDY    48  34  57 S9        29.62S
CHEROKEE *     CLEAR     47  34  60 S8        29.57R
DENISON *      CLOUDY    50  32  50 S13G20    29.60S
LE MARS *      PTCLDY    45  34  65 SW7       29.56R
ORANGE CITY *  CLOUDY    39  37  93 W3        29.56R
SHELDON *      CLOUDY    41  34  75 S6        29.55R
SIOUX CITY     CLEAR     45  34  65 S5        29.56R
SPENCER        CLOUDY    40  33  76 S7        29.57S
STORM LAKE *   CLEAR     43  34  70 S12       29.57S
$$

IAZ055>058-069>071-079>083-090>094-190000-
   SOUTHWEST IOWA

CITY           SKY/WX    TMP DP  RH WIND       PRES   REMARKS
ATLANTIC *     CLOUDY    50  30  46 S13       29.63R
AUDUBON *      CLOUDY    50  30  46 S16G24    29.64R
CLARINDA *     CLOUDY    54  32  43 S20G28    29.65S
COUNCIL BLFS * CLOUDY    54  34  47 S13       29.60R
CRESTON *      PTCLDY    50  28  43 S17G23    29.65R
HARLAN  *      CLOUDY    52  32  46 S16G22    29.64R
LAMONI         PTCLDY    53  28  38 S20G28    29.63F
RED OAK *      CLOUDY    52  32  46 S16G22    29.62S
SHENANDOAH *   CLOUDY    54  34  47 S17G29    29.63R
$$

IAZ047>049-059>061-072>074-084-190000-
   CENTRAL IOWA

CITY           SKY/WX    TMP DP  RH WIND       PRES   REMARKS
AMES           CLOUDY    45  32  60 CALM      29.67R
ANKENY *       CLOUDY    52  28  40 S10G16    29.67R
BOONE *        CLOUDY    46  30  53 S8        29.65R
CHARITON *     PTCLDY    52  28  40 S22G36    29.64F
DES MOINES     CLOUDY    51  28  41 S13G23    29.66R
GRINNELL*      PTCLDY    46  30  55 SE16      29.69F
KNOXVILLE *    PTCLDY    50  28  43 S21G32    29.65F
MARSHALLTOWN   CLOUDY    45  30  55 S16       29.66F
NEWTON *       PTCLDY    46  30  53 S16G25    29.66F
PELLA *        PTCLDY    50  28  42 S16G24    29.69S
$$

IAZ004>006-015-016-023>025-035-036-190000-
   NORTH CENTRAL IOWA

CITY           SKY/WX    TMP DP  RH WIND       PRES   REMARKS
CLARION *      CLOUDY    41  37  87 S16       29.64F
ESTHERVILLE    PTCLDY    37  31  78 S10       29.58R WCI  30
FORT DODGE *   CLOUDY    46  29  51 S14       29.63F
MASON CITY     CLOUDY    40  31  70 SE13      29.65F WCI  32
FOREST CITY *  FAIR      43  32  65 S13       29.63F
IOWA FALLS *   FAIR      41  32  69 S13       29.69R
$$

IAZ007>011-017>019-026>030-037>042-050>054-066-190000-
   NORTHEAST IOWA

CITY           SKY/WX    TMP DP  RH WIND       PRES   REMARKS
CEDAR RAPIDS   FAIR      44  30  57 S17G29    29.74F
CHARLES CITY * FAIR      39  32  75 S18       29.69S WCI  30
CLINTON *      FAIR      39  31  72 MISG        N/A
DECORAH *      MOCLDY    39  28  65 S14G25    29.71R WCI  31
DUBUQUE        FAIR      36  29  75 S25G31    29.79F WCI  24
MONTICELLO *   FAIR      39  30  70 SE15G22   29.78F WCI  31
OELWEIN *      FAIR      37  36  93 SE20      29.70F WCI  27
WATERLOO       FAIR      40  30  67 SE16G29   29.68F WCI  31
$$

IAZ064-065-067-068-078-190000-
   EAST CENTRAL IOWA

CITY           SKY/WX    TMP DP  RH WIND       PRES   REMARKS
DAVENPORT      FAIR      43  30  60 SE20G31   29.86F
IOWA CITY      FAIR      45  29  53 SE18      29.79F
MT. PLEASANT * CLEAR     46  30  53 S21G30    29.80F
MUSCATINE *    FAIR      46  28  49 S14G20    29.83F
QUAD CITIES    FAIR      44  31  60 SE17G24   29.85F
$$

IAZ062-063-075>077-085>089-095>099-190000-
   SOUTHEAST IOWA

CITY           SKY/WX    TMP DP  RH WIND       PRES   REMARKS
BURLINGTON     CLEAR     47  28  47 S14G28    29.83F
FAIRFIELD *    CLEAR     50  28  43 S20G29    29.74F
FORT MADISON * CLEAR     48  30  49 S14G25    29.84F
KEOKUK *       CLEAR     48  28  46 SE10G21   29.83F
OTTUMWA        CLEAR     51  28  41 S25G35    29.71F
WASHINGTON *   CLEAR     46  30  53 S24G30    29.77F
$$

ABBREVIATIONS USED IN REMARKS
   TC - TEMPERATURES IN CELSIUS
  WCI - WIND CHILL INDEX
   HX - HEAT INDEX
  VSB - VISIBILITY
$$




USA.gov is the U.S. government's official web portal to all federal, state and local government web resources and services.